SCOUT G-1 DEB, 19181

Orbit data source: Space-Track

SCOUT G-1 DEB, 19181 is space debris in LEO originally from a launch on Tue, 26 Apr 1988 UTC launched from the Air Force Western Test Range (AFWTR). Debris objects in space refer to the collection of defunct objects orbiting the Earth. Examples of debris include non-operational satellites, rocket bodies, and fragments generated from explosions, collisions, or faulty payload assembly.

Loading next visibility...
Identifier
19181, 1988-033G
Orbit
LEO
Country
Flag of USUS
Related business
Manufacturer
Unknown
Mission
Spacecraft
Bus & Motor
Unknown
Mass
Unknown
Launch date (UTC)
1988-04-26 (38 years ago)
Launch vehicle
Unknown
Launch site
Air Force Western Test Range (AFWTR)
Object type
Payload
Rocket body
Debris
Shape & HBR
Unknown shape, 0.1 m
Radar Cross Section
Medium (>0.1 m² and <1 m²)

Expand to show TLE details & history
Last TLE update: 3 days ago

TLE from 3 days ago
0 SCOUT G-1 DEB
1 19181U 88033G   26170.25637499  .00000177  00000-0  33755-3 0  9994
2 19181  89.8388 277.6782 0251703 104.5929 287.6296 13.22078258837571
Epoch: 2026-06-19T06:09Z
TLE epoch observation values (Epoch: 2026-06-19T06:09:10.799Z)
Latitude
29.49346°
Longitude
-82.01404°
Altitude
1,127.287 km
Speed
7.317 km/s
True Right ascension
18h 31m 04s
True Declination
29° 21' 13"
Sunlit
Object was in full shadow at epoch
Visualization orbit readout
Latitude
Unknown
Longitude
Unknown
Altitude
Unknown
Speed
Unknown
Apparent Right ascension
Unknown
Apparent Declination
Unknown
Sunlit
N/A
Visualization observer readout
Local Sidereal Time
23:08:29
Azimuth
Unknown
Elevation
Unknown
Doppler factor
Unknown
Orbital elements
Apogee altitude
1,363.967 km
Perigee altitude
983.794 km
Semi-major axis
7,552.017 km
Eccentricity
0.02517
Inclination
89.8388°
RAAN
277.6782°
Arg. of periapsis
104.5929°
True anomaly
284.85541°
Mean anomaly
287.6296°
Eccentric anomaly
286.24503°
Mean motion
3.30711 °/min
Orbital period
108.86 mins
BSTAR
0.00033755
Loading maneuver chart data...
Computing Atmospheric mass density...
Loading historical data...
Loading historical data...
Loading historical data...
Loading historical data...
Loading historical data...
Loading historical data...
Loading historical data...

Documentation

Showing up to 5 results
|